TimeEDT,TemperatureF,Dew PointF,Humidity,Sea Level PressureIn,VisibilityMPH,Wind Direction,Wind SpeedMPH,Gust SpeedMPH,PrecipitationIn,Events,Conditions,WindDirDegrees,DateUTC
12:15 AM,62.6,62.6,100,29.79,10.0,Calm,Calm,-,N/A,,Scattered Clouds,0,2013-05-12 04:15:00
12:35 AM,62.6,62.6,100,29.80,10.0,Calm,Calm,-,0.01,Rain,Rain,0,2013-05-12 04:35:00
12:55 AM,62.6,62.6,100,29.79,7.0,Calm,Calm,-,0.07,Rain,Light Rain,0,2013-05-12 04:55:00
1:15 AM,62.6,62.6,100,29.79,7.0,SW,3.5,-,0.01,Rain,Rain,220,2013-05-12 05:15:00
1:35 AM,62.2,62.2,100,29.80,5.0,Calm,Calm,-,0.07,Rain,Rain,0,2013-05-12 05:35:00
1:55 AM,61.7,61.7,100,29.78,7.0,Calm,Calm,-,0.12,Rain,Heavy Rain,0,2013-05-12 05:55:00
2:15 AM,61.2,61.2,100,29.78,10.0,West,3.5,-,0.01,Rain,Light Rain,280,2013-05-12 06:15:00
2:35 AM,61.2,61.2,100,29.78,7.0,Calm,Calm,-,0.01,,Light Drizzle,0,2013-05-12 06:35:00
2:55 AM,61.0,61.0,100,29.78,7.0,Calm,Calm,-,0.01,Rain,Light Rain,0,2013-05-12 06:55:00
3:15 AM,60.8,60.8,100,29.76,7.0,Calm,Calm,-,N/A,,Scattered Clouds,0,2013-05-12 07:15:00
3:36 AM,60.4,60.4,100,29.77,7.0,Calm,Calm,-,N/A,,Scattered Clouds,0,2013-05-12 07:36:00
3:56 AM,60.8,60.8,100,29.78,7.0,Calm,Calm,-,N/A,,Scattered Clouds,0,2013-05-12 07:56:00
4:16 AM,61.3,61.3,100,29.79,7.0,Calm,Calm,-,N/A,,Mostly Cloudy,0,2013-05-12 08:16:00
4:36 AM,61.3,61.3,100,29.79,10.0,NNW,3.5,-,N/A,,Mostly Cloudy,340,2013-05-12 08:36:00
4:56 AM,60.8,60.8,100,29.80,10.0,NNW,5.8,-,N/A,,Overcast,330,2013-05-12 08:56:00
5:16 AM,60.3,57.0,89,29.80,10.0,NW,8.1,-,N/A,,Mostly Cloudy,320,2013-05-12 09:16:00
5:36 AM,59.4,57.6,94,29.81,10.0,NW,3.5,-,N/A,Rain,Rain,320,2013-05-12 09:36:00
5:50 AM,59.0,59.0,100,29.82,7.0,Calm,Calm,-,N/A,,Light Drizzle,0,2013-05-12 09:50:00
5:56 AM,59.0,59.0,100,29.82,10.0,Calm,Calm,-,N/A,,Mostly Cloudy,0,2013-05-12 09:56:00
6:16 AM,58.6,57.4,96,29.81,10.0,Calm,Calm,-,N/A,,Scattered Clouds,0,2013-05-12 10:16:00
6:36 AM,58.6,56.3,92,29.82,10.0,NW,4.6,-,N/A,,Mostly Cloudy,310,2013-05-12 10:36:00
6:53 AM,57.2,55.4,94,29.82,10.0,NW,6.9,-,N/A,,Overcast,310,2013-05-12 10:53:00
6:56 AM,58.5,54.7,87,29.82,10.0,NNW,6.9,-,N/A,,Overcast,330,2013-05-12 10:56:00
7:16 AM,58.5,54.7,87,29.82,10.0,NNW,6.9,-,N/A,,Overcast,330,2013-05-12 11:16:00
7:36 AM,59.0,54.9,86,29.82,10.0,NNW,8.1,-,N/A,,Overcast,340,2013-05-12 11:36:00
7:42 AM,59.0,54.5,85,29.82,10.0,NNW,6.9,-,N/A,,Overcast,340,2013-05-12 11:42:00
7:50 AM,59.0,55.4,88,29.82,10.0,NNW,5.8,-,N/A,,Overcast,330,2013-05-12 11:50:00
8:50 AM,62.6,51.8,68,29.84,10.0,NNW,11.5,-,N/A,,Mostly Cloudy,330,2013-05-12 12:50:00
9:50 AM,64.4,51.8,64,29.85,10.0,NW,15.0,23.0,N/A,,Mostly Cloudy,310,2013-05-12 13:50:00
10:53 AM,64.4,50.0,59,29.86,10.0,NW,12.7,23.0,N/A,,Mostly Cloudy,310,2013-05-12 14:53:00
11:50 AM,64.4,44.6,49,29.87,10.0,NW,17.3,28.8,N/A,,Scattered Clouds,310,2013-05-12 15:50:00
12:57 PM,64.4,46.4,52,29.88,10.0,NW,17.3,23.0,N/A,,Mostly Cloudy,310,2013-05-12 16:57:00
1:52 PM,64.4,44.6,49,29.88,10.0,NW,12.7,20.7,N/A,,Scattered Clouds,310,2013-05-12 17:52:00
3:50 PM,64.4,39.2,40,29.89,10.0,NNW,12.7,23.0,N/A,,Partly Cloudy,340,2013-05-12 19:50:00
4:50 PM,64.4,37.4,37,29.90,10.0,NW,13.8,20.7,N/A,,Partly Cloudy,310,2013-05-12 20:50:00
5:50 PM,64.4,35.6,34,29.91,10.0,NW,18.4,26.5,N/A,,Partly Cloudy,320,2013-05-12 21:50:00
6:50 PM,62.6,35.6,37,29.93,10.0,NNW,15.0,23.0,N/A,,Clear,330,2013-05-12 22:50:00
7:53 PM,59.0,33.8,39,29.96,10.0,NW,13.8,-,N/A,,Clear,320,2013-05-12 23:53:00
9:53 PM,57.2,32.0,38,29.99,10.0,NW,9.2,17.3,N/A,,Clear,320,2013-05-13 01:53:00
10:58 PM,54.9,33.8,45,30.04,10.0,NNW,12.7,17.3,N/A,,Clear,340,2013-05-13 02:58:00
11:18 PM,54.3,34.0,46,30.04,10.0,NNW,13.8,19.6,N/A,,Clear,340,2013-05-13 03:18:00
11:38 PM,54.5,32.9,44,30.04,10.0,NNW,16.1,-,N/A,,Clear,330,2013-05-13 03:38:00
11:58 PM,54.1,32.9,45,30.05,10.0,NNW,13.8,19.6,N/A,,Clear,340,2013-05-13 03:58:00